Regional Weather Roundup
Issued by NWS Newport/Morehead, NC

Current Version | Previous Version | Text Only | Print | Product List | Glossary On
Versions: 1 2 3 4 5 6 7 8 9 10 11 12 13 14 15 16 17 18 19 20 21 22 23 24 25 26 27 28 29 30 31 32 33 34 35 36 37 38 39 40 41 42 43 44 45 46 47 48 49 50
579 ASUS42 KMHX 211212 RWRMHX WEATHER ROUNDUP FOR EASTERN NORTH CAROLINA NATIONAL WEATHER SERVICE NEWPORT/MOREHEAD CITY NC 800 AM EDT THU MAY 21 2015 NOTE: "FAIR" INDICATES FEW OR NO CLOUDS BELOW 12,000 FEET WITH NO SIGNIFICANT WEATHER AND/OR OBSTRUCTIONS TO VISIBILITY NCZ015>017-031-032-045>047-102-103-211300- NORTH COAST CITY SKY/WX TMP DP RH WIND PRES REMARKS EDENTON CLOUDY 66 58 75 E7 29.94F ELIZABETH CITY CLOUDY 66 56 70 E12 29.95F KITTY HAWK SUNNY 66 55 68 E9 29.94S MANTEO SUNNY 66 56 69 E12 29.95S $$ NCZ045>047-081-094-103-104-211300- CENTRAL COAST CITY SKY/WX TMP DP RH WIND PRES REMARKS FRISCO SUNNY 73 62 68 SE15 29.91F SWANQUARTER N/A 72 N/A N/A E9 29.88S $$ NCZ095-097-098-100-101-211300- SOUTHERN COAST CITY SKY/WX TMP DP RH WIND PRES REMARKS BEAUFORT CLOUDY 74 71 91 SE8 29.89S CEDAR ISLAND N/A 73 N/A N/A E9G18 29.94S JACKSONVILLE CLOUDY 72 66 81 E6 29.88S PINEY ISLAND MOSUNNY N/A N/A N/A SE17G24 29.89F WILMINGTON CLOUDY 73 70 90 NW5 29.87S $$ NCZ011>013-027>030-043-044-078>080-089-090>093-098-211300- COASTAL PLAIN CITY SKY/WX TMP DP RH WIND PRES REMARKS AHOSKIE CLOUDY 64 56 78 E6 29.93F HAZE CLINTON PTSUNNY 69 63 81 E5 29.89S ELIZABETHTOWN PTSUNNY 70 68 92 E5 29.88S GOLDSBORO PTSUNNY 68 59 72 E9 29.87F GREENVILLE MOSUNNY 68 55 64 E7 29.93F HAVELOCK CLOUDY 72 66 81 E8 29.90S KENANSVILLE CLOUDY 68 60 76 CALM 29.90S KINSTON PTSUNNY 68 59 73 E3 29.91F NEW BERN CLOUDY 72 63 73 E5 29.91S RICHLANDS PTSUNNY 70 61 73 E7 29.89F ROCKY MOUNT CLOUDY 66 51 58 VRB3 29.91F WASHINGTON MOSUNNY 65 57 75 E8 29.92F WHITEVILLE CLOUDY 72 70 96 CALM 29.88R FOG $$ AMZ130-135-150-152-154-156-158-170-250-252-270-ANZ085-086-088-633-658-670-211300- MARINE OBSERVATIONS STATION/POSITION TIME TEMP WIND PRES WAVE SWELL AIR SEA DIR/SP/G HT/PER HT/PER (UTC) (F) (DEG/KT/KT) (MB) (FT/S) (FT/S) CHESAPEAKE LIGHT 1100 63 90/ 12/ 12 1015.2 64 E VA BEACH 1150 63 62 80/ 8/ 10 1014.3 3/ 9 3/ 9 DUCK 1100 65 67 90/ 14/ 15 1013.3 2 E DUCK 1111 66 N/A 3/ 4 OREGON INLET 1100 65 68 50/ 9/ 13 1014.1 13E OREGON INLT 1200 65 N/A 3/ 8 HATTERAS CG 1100 73 72 100/ 11/ 14 1012.7 DIAMOND BUOY 1150 74 77 110/ 14/ 17 1012.9 3/ 8 2/ 8 CAPE LOOKOUT 1200 72 120/ 14/ 16 1011.8 BEAUFORT LAB 1100 73 74 100/ 11/ 13 1011.4 27 SE WRIGHTSVLE 1100 74 78 140/ 4/ 4 N/A 5 SE WRIGHTSVLE 1108 76 76 100/ 10/ 14 1011.4 225 S CAPE HAT 1150 74 75 200/ 10/ 10 1014.3 3/ 5 2/ 5 41 SE CHARLESTON 1150 77 76 220/ 16/ 19 1010.9 3/ 5 2/ 9 $$

USA.gov is the U.S. government's official web portal to all federal, state and local government web resources and services.